Meteo Giornale » Osservazioni meteo Russia » Barnaul
ore: 03:00 - Osservazioni Meteo Barnaul
Lat. 53° 26' N Lon. 83° 31' E Alt. 252 metri s.l.m.
5 °C
Poco Nuvoloso
Temp. 24 Ore
5 °C
15 °C
Ovest
10.8 Km/h
Dew point 2 °C
Umidità 80 %
Visibilità 10 Km
Il sole sorge alle ore 05:35
Il sole tramonta alle ore 19:16
| Data e Ora | Cielo e Fenomeni | T °C | DP °C | Um. % | Pres. hPa | Vis. km | Vento km/h | |
|---|---|---|---|---|---|---|---|---|
| Oggi h: 03:00 | Poco Nuvoloso | 5 | 2 | 80 | 1015 | 10 | O 10.8 | |
| Oggi h: 02:30 | Nuvoloso | 5 | 2 | 80 | 1015 | 10 | O 10.8 | |
| Oggi h: 02:00 | Nuvoloso | 6 | 2 | 75 | 1014 | 10 | O 10.8 | |
| Oggi h: 01:30 | Poco Nuvoloso | 6 | 3 | 81 | 1014 | 10 | O 10.8 | |
| Oggi h: 01:00 | Poco Nuvoloso | 6 | 3 | 81 | 1014 | 10 | O/NO 10.8 | |
| Oggi h: 00:30 | Poco Nuvoloso | 6 | 3 | 81 | 1014 | 10 | O 14.4 | |
| Oggi h: 00:00 | Nuvoloso | 6 | 3 | 81 | 1013 | 10 | O/NO 10.8 | |
| Ieri h: 23:30 | Nuvoloso | 7 | 3 | 75 | 1013 | 10 | O 10.8 | |
| Ieri h: 23:00 | Nuvoloso | 7 | 3 | 75 | 1013 | 10 | O/NO 10.8 | |
| Ieri h: 22:30 | Poco Nuvoloso | 8 | 3 | 70 | 1012 | 10 | O/NO 14.4 | |
| Ieri h: 22:00 | Poco Nuvoloso | 8 | 3 | 70 | 1012 | 10 | O 14.4 | |
| Ieri h: 21:30 | Poco Nuvoloso | 8 | 3 | 70 | 1012 | 10 | O 14.4 | |
| Ieri h: 21:00 | Poco Nuvoloso | 8 | 3 | 70 | 1012 | 10 | O 14.4 | |
| Ieri h: 20:30 | Nuvoloso | 8 | 4 | 75 | 1011 | 10 | O 14.4 | |
| Ieri h: 20:00 | Nuvoloso | 9 | 4 | 70 | 1011 | 10 | O 10.8 | |
| Ieri h: 19:30 | Nuvoloso | 10 | 4 | 66 | 1011 | 10 | O 10.8 | |
| Ieri h: 19:00 | Nuvoloso | 12 | 4 | 57 | 1010 | 10 | O 14.4 | |
| Ieri h: 18:30 | Nuvoloso | 11 | 4 | 61 | 1010 | 10 | O/NO 10.8 | |
| Ieri h: 18:00 | Nuvoloso | 12 | 4 | 57 | 1010 | 10 | O 10.8 | |
| Ieri h: 17:30 | Nuvoloso | 12 | 4 | 57 | 1010 | 10 | O/NO 14.4 | |
| Ieri h: 17:00 | Nuvoloso | 12 | 3 | 54 | 1010 | 10 | O/NO 14.4 | |
| Ieri h: 16:30 | Nuvoloso | 12 | 3 | 54 | 1010 | 10 | O/NO 14.4 | |
| Ieri h: 16:00 | Nuvoloso | 12 | 3 | 54 | 1010 | 10 | O/NO 18 | |
| Ieri h: 15:30 | Nuvoloso | 13 | 3 | 50 | 1010 | 10 | O 18 | |
| Ieri h: 15:00 | Nuvoloso | 13 | 3 | 50 | 1010 | 10 | O 21.6 | |
| Ieri h: 14:30 | Nuvoloso | 13 | 3 | 50 | 1010 | 10 | O 18 | |
| Ieri h: 14:00 | Nuvoloso | 13 | 3 | 50 | 1010 | 10 | O 18 | |
| Ieri h: 13:30 | Nuvoloso | 13 | 4 | 54 | 1010 | 10 | O 18 | |
| Ieri h: 13:00 | Nuvoloso | 14 | 5 | 54 | 1011 | 10 | O 21.6 | |
| Ieri h: 12:30 | Nuvoloso | 14 | 5 | 54 | 1010 | 10 | O 25.2 | |
| Ieri h: 12:00 | Nuvoloso | 15 | 6 | 54 | 1010 | 10 | O 18 | |
| Ieri h: 11:30 | Poco Nuvoloso | 15 | 7 | 58 | 1010 | 10 | O/NO 21.6 | |
| Ieri h: 11:00 | Poco Nuvoloso | 15 | 7 | 58 | 1010 | 10 | O/NO 18 | |
| Ieri h: 10:30 | Poco Nuvoloso | 15 | 6 | 54 | 1010 | 10 | O/NO 25.2 | |
| Ieri h: 10:00 | Sereno | 14 | 6 | 58 | 1010 | 10 | O/NO 25.2 | |
| Ieri h: 09:30 | Sereno | 14 | 8 | 67 | 1010 | 10 | O/NO 25.2 | |
| Ieri h: 09:00 | Sereno | 13 | 8 | 71 | 1009 | 10 | O/NO 25.2 | |
| Ieri h: 08:30 | Sereno | 13 | 9 | 76 | 1009 | 10 | NO 25.2 | |
| Ieri h: 08:00 | Sereno | 12 | 9 | 81 | 1009 | 10 | O/NO 28.8 | |
| Ieri h: 07:30 | Sereno | 12 | 9 | 81 | 1008 | 10 | O 25.2 | |
| Ieri h: 07:00 | Sereno | 13 | 10 | 81 | 1008 | 10 | O/SO 18 | |
| Ieri h: 06:30 | Sereno | 13 | 11 | 87 | 1008 | 10 | O/SO 18 | |
| Ieri h: 06:00 | Sereno | 13 | 12 | 93 | 1007 | 10 | S/SO 10.8 | |
| Ieri h: 05:30 | Sereno | 13 | 12 | 93 | 1007 | 10 | SO 14.4 | |
| Ieri h: 05:00 | Sereno | 13 | 12 | 93 | 1007 | 10 | S/SO 10.8 | |
| Ieri h: 04:30 | Sereno | 13 | 13 | 100 | 1007 | 10 | S/SO 10.8 | |
| Ieri h: 04:00 | Sereno | 13 | 13 | 100 | 1007 | 10 | S 10.8 | |



